Weather History for KPUC - April, 2014

Change the Weather History Date:

Wednesday, April 16, 2014

  Actual Average Record
Temperature  
Mean Temperature 50 °F -  
Max Temperature 60 °F 56 °F 82 °F (1990)
Min Temperature 43 °F 31 °F 24 °F (1983)
Degree Days  
Heating Degree Days 15    
Moisture  
Dew Point 11 °F    
Average Humidity 21    
Maximum Humidity 31    
Minimum Humidity 13    
Precipitation  
Precipitation 0.00 in - - ()
Sea Level Pressure  
Sea Level Pressure 29.87 in    
Wind  
Wind Speed 10 mph (NW)    
Max Wind Speed 16 mph    
Max Gust Speed 24 mph    
Visibility 10 miles    
Events      
Averages and records for this station are not official NWS values.
T = Trace of Precipitation, MM = Missing Value Source: NWS Daily Summary

Daily Weather History Graph

Daily Weather History Graph

Search for Another Location

Airport or City:

Trip Planner

Search our weather history database for the weather conditions in past years. The results will help you decide how hot, cold, wet, or windy it might be!

Date:

Astronomy

Apr. 16, 2014 Rise Set
Actual Time 6:44 AM MDT 8:02 PM MDT
Civil Twilight 6:16 AM MDT 8:30 PM MDT
Nautical Twilight 5:42 AM MDT 9:03 PM MDT
Astronomical Twilight 5:07 AM MDT 9:38 PM MDT
Moon 9:49 PM MDT (4/16) 7:34 AM MDT (4/16)
Length of Visible Light 14h 13m
Length of Day
13h 18m
Full, 98% of the Moon is Illuminated
Apr 16
Full
Apr 22
Last Quarter
Apr 29
New
May 6
First Quarter
May 14
Full

Hourly Weather History & Observations

Time (MDT) Temp. Windchill Dew Point Humidity Pressure Visibility Wind Dir Wind Speed Gust Speed Precip Events Conditions
12:53 AM 50.0 °F - 19.9 °F 31% 29.78 in 10.0 mi NNW 15.0 mph 21.9 mph N/A   Clear
1:53 AM 48.0 °F - 14.0 °F 26% 29.80 in 10.0 mi NW 8.1 mph 19.6 mph N/A   Clear
2:53 AM 46.0 °F 42.5 °F 8.1 °F 21% 29.78 in 10.0 mi West 6.9 mph - N/A   Clear
3:53 AM 45.0 °F 41.2 °F 6.1 °F 20% 29.79 in 10.0 mi NW 6.9 mph - N/A   Clear
4:53 AM 45.0 °F 40.6 °F 3.0 °F 18% 29.80 in 10.0 mi NNW 8.1 mph - N/A   Clear
5:53 AM 44.1 °F 40.1 °F 7.0 °F 22% 29.82 in 10.0 mi North 6.9 mph - N/A   Clear
6:53 AM 43.0 °F 37.7 °F 9.0 °F 25% 29.84 in 10.0 mi NNE 9.2 mph - N/A   Clear
7:53 AM 48.0 °F - 9.0 °F 21% 29.85 in 10.0 mi Calm Calm - N/A   Clear
8:53 AM 48.9 °F - 10.0 °F 21% 29.89 in 10.0 mi NNW 8.1 mph - N/A   Partly Cloudy
9:53 AM 50.0 °F - 9.0 °F 19% 29.92 in 10.0 mi NNW 15.0 mph - N/A   Overcast
10:53 AM 54.0 °F - 8.1 °F 16% 29.90 in 10.0 mi North 11.5 mph - N/A   Scattered Clouds
11:53 AM 55.4 °F - 5.0 °F 13% 29.95 in 10.0 mi NNW 13.8 mph 18.4 mph N/A   Overcast
12:53 PM 55.0 °F - 3.9 °F 13% 29.86 in 10.0 mi NW 10.4 mph - N/A   Mostly Cloudy
1:53 PM 55.9 °F - 7.0 °F 14% 29.87 in 10.0 mi NNW 9.2 mph 19.6 mph N/A   Mostly Cloudy
2:53 PM 55.9 °F - 12.9 °F 18% 29.87 in 10.0 mi West 9.2 mph 19.6 mph N/A   Mostly Cloudy
3:53 PM 57.0 °F - 15.1 °F 19% 29.86 in 10.0 mi West 8.1 mph 18.4 mph N/A   Scattered Clouds
4:53 PM 57.9 °F - 15.1 °F 19% 29.85 in 10.0 mi WNW 13.8 mph 20.7 mph N/A   Clear
5:53 PM 57.9 °F - 16.0 °F 19% 29.87 in 10.0 mi NW 16.1 mph 21.9 mph N/A   Clear
6:53 PM 55.9 °F - 17.1 °F 22% 29.88 in 10.0 mi West 13.8 mph 24.2 mph N/A   Clear
7:53 PM 52.0 °F - 17.1 °F 25% 29.89 in 10.0 mi NW 12.7 mph - N/A   Clear
8:53 PM 48.9 °F - 17.1 °F 28% 29.93 in 10.0 mi NW 12.7 mph - N/A   Clear
9:53 PM 48.0 °F - 16.0 °F 28% 29.95 in 10.0 mi NNW 11.5 mph - N/A   Clear
10:53 PM 46.9 °F - 15.1 °F 28% 29.95 in 10.0 mi NNW 10.4 mph - N/A   Clear
11:53 PM 46.0 °F 41.9 °F 14.0 °F 28% 29.96 in 10.0 mi North 8.1 mph - N/A   Clear